Location: Bishopstone
(51.0167°N, 1.9000°W)
Time: 02:10:58
(UTC+00:00)

Cosmos 1544 Rocket - Pass Details

Date: 16 September 2019
Orbit: 604 x 632 km, 82.5° (Epoch: 22 October)

Event Time Altitude Azimuth Distance (km) Brightness Sun altitude
Exits shadow 21:21:34 40° 244° (WSW) 939 4.5 -26.5°
Maximum altitude 21:22:37 49° 285° (WNW) 825 4.4 -26.6°
Drops below altitude 10° 21:26:59 10° 1° (N) 2,026 6.7 -27.1°
Sets 21:29:18 0° 7° (N) 2,936 7.6 -27.4°
